Starlink 4051

operational
NORAD ID: 53273 Int'l Des: 2022-086 Owner: SPXS Country: US Constellation: starlink
LEOCIRCULAR

Über Starlink 4051

Beschreibung wird geladen...

Live-Position

3D-Globus wird geladen...

Nächste Überflüge

Höhenverlauf

Altitude vs Time

uPlot chart will show altitude changes over time

Zweizeiliger Elementsatz

1 53273U 22086AH 25307.64096602 -.00001419 00000-0 -71062-4 0 9995
2 53273 53.2189 29.9748 0001359 88.1587 271.9560 15.08836550182163
Epoch: 3. Nov. 2025 • Age: 12 hours

Aktueller Status

Höhe 552.9 km
Geschwindigkeit 7.58 km/s
Subsatellitenpunkt -38.17°S, 109.97°W
Startdatum 24. Juli 2022
Alter 3.2 years
Typ internet

Technische Details

Klassifizierung Payload
Masse 297.00 kg
Trockenmasse 275.00 kg
Gesamtmasse 297.00 kg
Länge 0.20 m
Durchmesser 2.80 m
Spannweite 9.00 m
Form Box + pan
Hersteller SPXS
Bus-Typ Starlink
Phasenstatus In Orbit
Besitzer/Staat SPXS/US

Große Konstellationen

Loading constellations...